Retour au catalogue

STARLINK-6084

ActifCommunicationsVLEO
NORAD 56111·PAYLOAD·🇺🇸 United States

Lancé Mar 29, 2023 depuis Cape Canaveral Space Force Station

Loading…

Prochains Passages (prochaines 24 heures)

TLE

FraisSource: CelesTrak SupGP

Époque: Sep 15, 2026, 02:44 UTC

1 56111C 23046U   26258.11437500  .00019488  00000+0  70587-3 0  2580
2 56111  43.0016 172.2467 0001538 267.7105 178.9358 15.27568116    18

Suivez STARLINK-6084 en temps réel avec AllMySat

Download on the App Store